K5MSM Weather Reports


Display with metric or nautical units.
time (UTC)temp
F
wind
direction
speed
MPH
gust
MPH
rain 1hr
in
rain 24hr
in
rain mn
in
humidity
%
barometer
mb
20260507113036 45 318 0.0 0.0 0.00 0.00 0.00 89 1021.2
20260507111519 45 318 0.0 0.0 0.00 0.00 0.00 88 1020.9
20260507110018 46 318 0.0 0.0 0.00 0.00 0.00 90 1021.2
20260507104517 45 319 0.0 0.0 0.00 0.00 0.00 89 1021.0
20260507103020 45 319 0.0 0.0 0.00 0.00 0.00 89 1020.9
20260507101517 44 318 0.0 0.0 0.00 0.00 0.00 88 1021.0
20260507100013 45 318 0.0 0.0 0.00 0.00 0.00 87 1021.0
20260507094511 46 319 0.0 0.0 0.00 0.00 0.00 88 1020.8
20260507093011 46 318 0.0 0.0 0.00 0.00 0.00 88 1021.0
20260507091510 47 319 0.0 0.0 0.00 0.00 0.00 89 1020.9
20260507090010 46 310 0.0 0.0 0.00 0.00 0.00 89 1020.5
20260507084510 47 310 0.0 0.0 0.00 0.00 0.00 88 1020.3
20260507083008 47 309 0.0 0.0 0.00 0.00 0.00 86 1020.4
20260507081508 48 310 0.0 0.0 0.00 0.00 0.00 87 1020.8
20260507080011 47 310 0.0 0.0 0.00 0.00 0.00 90 1020.9
20260507074507 46 308 0.0 0.0 0.00 0.00 0.00 89 1020.9
20260507073005 46 308 0.0 0.0 0.00 0.00 0.00 89 1020.7
20260507071505 46 308 0.0 0.0 0.00 0.00 0.00 89 1020.8
20260507070005 46 308 0.0 0.0 0.00 0.00 0.00 89 1021.1
20260507064600 47 308 0.0 0.0 0.00 0.00 0.00 89 1021.1
20260507063058 47 308 0.0 0.0 0.00 0.00 0.00 89 1020.7
20260507061556 47 308 0.0 0.0 0.00 0.00 0.00 88 1020.4
20260507054551 48 308 0.0 0.0 0.00 0.00 0.00 88 1020.7
20260507053048 49 308 0.0 0.0 0.00 0.00 0.00 88 1020.7
20260507051547 49 309 0.0 0.0 0.00 0.00 0.00 87 1020.7
20260507050044 49 309 0.0 0.0 0.00 0.00 0.00 87 1020.5
20260507044555 50 308 0.0 0.0 0.00 0.00 0.00 86 1020.4
20260507043055 50 309 0.0 0.0 0.00 0.00 0.00 84 1020.3
20260507041541 51 309 0.0 0.0 0.00 0.00 0.00 83 1020.2
20260507040041 51 308 0.0 0.0 0.00 0.00 0.00 83 1020.3
20260507034541 52 308 0.0 0.0 0.00 0.00 0.00 81 1020.2
20260507033038 53 308 0.0 0.0 0.00 0.00 0.00 79 1020.1
20260507031542 54 308 0.0 0.0 0.00 0.00 0.00 77 1020.0
20260507030035 55 309 0.0 1.0 0.00 0.00 0.00 74 1019.8
20260507024536 56 308 0.0 0.0 0.00 0.00 0.00 73 1019.7
20260507023035 56 320 0.0 1.0 0.00 0.00 0.00 71 1019.4
20260507021538 57 11 0.0 1.0 0.00 0.00 0.00 71 1019.2
20260507020047 57 14 0.0 4.0 0.00 0.00 0.00 70 1019.1
20260507014535 57 336 0.0 2.0 0.00 0.00 0.00 69 1018.9
20260507013033 58 339 0.0 4.0 0.00 0.00 0.00 68 1018.5
20260507011542 59 7 0.0 3.0 0.00 0.00 0.00 67 1018.4
20260507010035 60 318 0.0 5.0 0.00 0.00 0.00 65 1018.3
20260507004532 60 342 0.0 3.0 0.00 0.00 0.00 64 1018.2
20260507003030 61 41 0.0 6.0 0.00 0.00 0.00 63 1018.1
20260507001601 61 63 0.0 5.0 0.00 0.00 0.00 64 1018.1
20260507000035 62 34 0.0 5.0 0.00 0.00 0.00 64 1018.1
20260506234528 62 26 0.0 3.0 0.00 0.00 0.00 65 1018.0
20260506233027 62 50 0.0 3.0 0.00 0.00 0.00 64 1017.8
20260506231527 62 86 1.0 6.0 0.00 0.00 0.00 63 1017.8
20260506230043 62 5 0.0 3.0 0.00 0.00 0.00 65 1017.9
20260506224526 62 141 0.0 2.0 0.00 0.00 0.00 66 1017.8
20260506223031 63 160 0.0 1.0 0.00 0.00 0.00 65 1017.8
20260506221525 63 118 0.0 2.0 0.00 0.00 0.00 65 1017.6
20260506220033 64 68 0.0 2.0 0.00 0.00 0.00 63 1017.5
20260506214523 65 53 0.0 3.0 0.00 0.00 0.00 63 1017.6
20260506213019 64 315 1.0 4.0 0.00 0.00 0.00 65 1017.3
20260506211521 63 110 1.0 5.0 0.00 0.00 0.00 64 1016.9
20260506210027 61 39 2.0 6.0 0.00 0.00 0.00 68 1017.3
20260506204512 59 309 1.0 7.0 0.00 0.00 0.00 70 1017.2
20260506203011 59 257 1.0 4.0 0.00 0.00 0.00 70 1017.3
20260506201513 59 315 0.0 3.0 0.00 0.00 0.00 71 1017.6
20260506200009 60 48 1.0 5.0 0.00 0.00 0.00 68 1017.2
20260506194509 60 140 1.0 5.0 0.00 0.00 0.00 65 1017.9
20260506193011 60 58 1.0 5.0 0.00 0.00 0.00 67 1017.8
20260506191511 60 39 1.0 4.0 0.00 0.00 0.00 67 1018.6
20260506190012 60 347 0.0 4.0 0.00 0.00 0.00 66 1018.7
20260506184506 61 358 1.0 6.0 0.00 0.00 0.00 67 1018.6
20260506183002 60 95 0.0 4.0 0.00 0.00 0.00 66 1019.1
20260506181603 60 132 0.0 3.0 0.00 0.00 0.00 67 1019.2
20260506180056 59 48 1.0 6.0 0.00 0.00 0.00 65 1019.2
20260506174553 59 86 1.0 5.0 0.00 0.00 0.00 68 1018.8
20260506173058 58 42 1.0 5.0 0.00 0.00 0.00 69 1018.9
20260506171550 58 45 0.0 4.0 0.00 0.00 0.00 67 1019.4
20260506170053 57 44 1.0 6.0 0.00 0.00 0.00 69 1019.4
20260506164555 56 37 1.0 5.0 0.00 0.00 0.00 73 1019.6
20260506163042 55 94 0.0 4.0 0.00 0.00 0.00 72 1019.6
20260506161538 54 113 0.0 4.0 0.00 0.00 0.00 72 1020.0
20260506160037 54 64 1.0 8.0 0.00 0.00 0.00 71 1019.3
20260506154533 54 83 1.0 5.0 0.00 0.00 0.00 74 1019.0
20260506153028 53 56 1.0 6.0 0.00 0.00 0.00 73 1019.0
20260506151525 53 134 1.0 4.0 0.00 0.00 0.00 73 1018.7
20260506150024 53 103 1.0 6.0 0.00 0.00 0.00 73 1018.7
20260506144527 53 52 2.0 8.0 0.00 0.00 0.00 73 1018.1
20260506143021 52 84 1.0 6.0 0.00 0.00 0.00 74 1018.3
20260506141527 52 54 2.0 6.0 0.00 0.00 0.00 74 1017.8
20260506140016 52 127 2.0 6.0 0.00 0.00 0.00 74 1017.5
20260506134514 52 131 1.0 11.0 0.00 0.00 0.00 75 1017.4
20260506133014 52 319 2.0 12.0 0.00 0.00 0.00 75 1017.4
20260506131512 51 60 1.0 9.0 0.00 0.00 0.00 75 1017.7
20260506130012 51 53 1.0 8.0 0.00 0.00 0.00 77 1017.0
20260506124510 51 31 2.0 7.0 0.00 0.00 0.00 78 1016.8
20260506123013 51 15 2.0 11.0 0.00 0.00 0.00 78 1017.4
20260506121512 51 8 1.0 6.0 0.00 0.00 0.00 77 1017.0
20260506120011 51 325 1.0 10.0 0.00 0.00 0.00 77 1016.8
20260506114502 51 300 1.0 8.0 0.00 0.00 0.00 78 1016.0